Location: Rodanthe
(35.5920°N, 75.4670°W)
Time: 03:24:01
(UTC-04:00)

ISS - All Passes

Search period start: 02 July 2016 00:00
Search period end: 12 July 2016 00:00
Orbit: 402 x 404 km, 51.6° (Epoch: 02 July)

Date Brightness Start Highest point End Pass type
(mag) Time Alt. Az. Time Alt. Az. Time Alt. Az.
02 Jul - 06:39:37 10° SSW 06:42:29 29° SE 06:45:22 10° ENE daylight
02 Jul - 08:16:13 10° W 08:18:55 24° NNW 08:21:39 10° NNE daylight
02 Jul - 13:10:10 10° N 13:12:03 14° NNE 13:13:56 10° ENE daylight
02 Jul - 14:45:33 10° NW 14:48:49 72° SW 14:52:03 10° SE daylight
03 Jul - 05:48:06 10° SSE 05:49:54 14° SE 05:51:42 10° E daylight
03 Jul - 07:22:54 10° WSW 07:26:02 44° NW 07:29:11 10° NE daylight
03 Jul - 13:52:51 10° NW 13:56:02 51° NE 13:59:13 10° ESE daylight
03 Jul - 15:30:45 10° WSW 15:32:07 12° SW 15:33:30 10° SSW daylight
04 Jul - 06:30:00 10° SW 06:33:14 85° SE 06:36:30 10° NE daylight
04 Jul - 08:08:25 10° WNW 08:10:04 13° NNW 08:11:42 10° N daylight
04 Jul - 13:00:19 10° NNW 13:03:09 26° NE 13:05:59 10° E daylight
04 Jul - 14:36:47 10° WNW 14:39:32 25° SW 14:42:16 10° S daylight
05 Jul - 05:37:29 10° SSW 05:40:30 37° SE 05:43:32 10° ENE daylight
05 Jul - 07:14:29 10° W 07:17:02 20° NNW 07:19:34 10° NNE daylight
05 Jul - 12:08:00 10° NNW 12:10:10 16° NNE 12:12:20 10° ENE daylight
05 Jul - 13:43:38 10° NW 13:46:50 56° SW 13:50:02 10° SE daylight
06 Jul - 04:45:36 10° S 04:47:51 17° SE 04:50:06 10° E visible
06 Jul - 06:21:02 10° WSW 06:24:04 36° NW 06:27:07 10° NNE daylight
06 Jul - 11:16:13 10° N 11:17:04 11° NNE 11:17:56 10° NE daylight
06 Jul - 12:50:48 10° NW 12:54:03 64° NE 12:57:17 10° ESE daylight
07 Jul - 05:27:58 10° SW 05:31:12 76° NW 05:34:28 10° NE daylight
07 Jul - 07:06:52 10° NW 07:08:07 12° NNW 07:09:22 10° N daylight
07 Jul - 11:58:11 10° NNW 12:01:10 31° NE 12:04:07 10° E daylight
07 Jul - 13:34:57 10° W 13:37:26 20° SW 13:39:56 10° S daylight
08 Jul - 04:35:17 10° SSW 04:38:25 46° SE 04:41:34 10° ENE visible
08 Jul - 06:12:42 10° WNW 06:15:01 18° NNW 06:17:21 10° NNE daylight
08 Jul - 11:05:46 10° NNW 11:08:10 19° NNE 11:10:33 10° ENE daylight
08 Jul - 12:41:37 10° WNW 12:44:44 44° SW 12:47:51 10° SSE daylight
09 Jul - 03:43:09 10° S 03:45:42 21° SE 03:48:16 10° ENE visible
09 Jul - 05:19:05 10° W 05:22:01 30° NW 05:24:56 10° NNE visible
09 Jul - 10:13:41 10° N 10:15:03 12° NNE 10:16:25 10° NE daylight
09 Jul - 11:48:40 10° NW 11:51:57 81° NE 11:55:12 10° SE daylight
10 Jul - 02:52:41 10° SE 02:53:03 10° SE 02:53:25 10° ESE visible
10 Jul - 04:25:51 10° WSW 04:29:04 60° NW 04:32:18 10° NE visible
10 Jul - 06:05:26 10° NW 06:06:04 10° NNW 06:06:43 10° NNW daylight
10 Jul - 10:55:57 10° NNW 10:59:02 37° NE 11:02:06 10° ESE daylight
10 Jul - 12:33:05 10° W 12:35:14 17° SW 12:37:23 10° S daylight
11 Jul - 03:33:01 10° SW 03:36:13 60° SE 03:39:26 10° NE visible
11 Jul - 05:10:49 10° WNW 05:12:55 16° NNW 05:15:00 10° NNE visible
11 Jul - 10:03:27 10° NNW 10:06:02 21° NNE 10:08:36 10° E daylight
11 Jul - 11:39:31 10° WNW 11:42:31 35° SW 11:45:31 10° SSE daylight
